Theta_e
299 296 292 294 296 297 300 306 305 309 312 310 308 309 311 315 314 312 312 313 315 316 319 320 319 318 317 316 315 315 315 317 317 318 318 319 317 320 321 321 320 321 321 322
298 294 298 301 301 299 302 303 301 306 310 309 308 308 311 313 312 314 314 313 313 315 315 314 314 314 313 313 313 313 313 316 316 317 317 317 316 319 319 321 318 320 320 318
296 299 303 302 298 298 294 294 300 302 307 309 306 304 306 311 312 313 313 314 314 313 311 311 311 313 314 314 315 315 314 315 315 316 316 315 315 316 315 315 317 318 317 315
300 304 302 299 299 297 294 305 307 305 301 295 303 293 303 307 307 309 309 310 311 312 312 311 311 312 313 313 314 313 314 314 313 312 308 306 306 307 310 310 312 308 311 311
299 301 301 300 300 301 297 309 307 305 291 295 297 293 302 306 303 306 308 309 310 310 310 308 308 309 310 311 310 310 309 308 307 306 305 304 304 305 307 306 305 305 307 309
302 307 305 303 304 302 302 297 293 291 289 285 293 294 297 301 305 306 308 308 307 304 304 306 308 308 308 308 308 308 306 306 305 303 303 303 303 302 302 303 305 306 306 307
301 301 304 304 299 300 298 291 285 285 284 283 296 294 300 305 307 308 307 305 303 305 306 304 304 304 304 304 306 305 305 306 304 302 302 302 303 303 302 302 304 304 305 307
294 293 301 304 299 295 293 291 286 281 282 284 296 293 298 306 308 307 306 303 304 304 303 302 303 302 302 303 303 302 302 301 301 301 302 302 303 301 301 302 302 304 305 309
293 296 303 304 302 300 296 292 292 288 286 286 292 298 303 305 305 305 303 303 303 303 303 304 303 301 300 301 301 300 300 300 301 301 301 302 302 301 300 301 302 303 306 307
299 292 301 303 303 301 298 299 291 289 284 282 290 291 292 300 301 304 304 303 303 302 304 304 302 301 301 302 300 300 300 300 300 301 300 302 301 301 301 301 301 303 304 306
298 295 296 299 296 294 295 294 292 290 288 283 282 286 301 300 303 304 305 304 303 303 304 300 300 301 301 301 299 300 300 301 303 302 300 300 301 302 302 302 303 303 304 305
299 293 289 293 300 302 299 294 292 287 286 288 286 286 300 301 304 303 304 304 304 302 299 299 300 301 301 299 299 300 300 303 303 301 300 301 301 303 302 302 302 303 304 306
298 293 288 290 294 297 297 300 295 292 290 287 285 287 301 305 304 304 302 299 299 299 299 300 300 299 298 298 299 300 301 301 301 302 302 302 303 303 302 303 303 304 305 305
306 294 290 286 290 294 296 298 298 292 287 288 290 293 297 299 301 301 296 298 298 298 299 299 299 297 297 298 300 302 302 301 301 303 302 302 302 302 302 303 303 303 304 303
297 292 294 297 301 301 298 296 296 295 294 290 292 291 295 297 297 299 297 298 298 298 298 298 295 295 296 300 302 303 303 303 303 303 303 301 301 301 302 301 302 302 302 301
297 292 294 294 300 299 295 298 298 297 296 294 293 291 295 296 297 294 295 297 296 297 297 296 296 298 301 301 302 302 302 304 304 302 301 301 301 301 301 301 300 301 301 301
296 293 290 287 297 295 290 296 296 295 296 295 289 293 296 294 294 293 294 294 296 295 296 297 297 298 300 299 301 301 302 304 302 301 300 301 301 301 301 301 301 299 299 300
296 293 290 287 290 283 295 305 301 296 296 296 296 296 296 294 295 295 295 294 295 295 296 297 296 297 299 301 301 302 302 303 301 301 300 301 301 300 300 301 301 300 300 300
299 294 289 285 284 293 298 301 298 295 294 298 296 295 295 296 295 293 297 297 297 296 297 298 297 298 300 300 301 301 301 300 301 301 300 300 300 300 300 299 299 301 301 301
300 296 291 287 285 284 294 303 305 300 288 297 298 295 293 295 288 289 296 298 297 298 299 297 300 301 300 301 301 301 298 300 299 301 301 301 301 300 299 299 299 301 301 301
293 292 289 286 285 291 300 303 303 287 287 297 297 296 294 292 292 293 298 297 298 300 299 300 301 300 301 302 301 297 300 299 301 303 302 301 301 300 300 300 300 300 300 301
292 289 287 287 285 283 302 301 292 294 295 297 296 295 294 294 295 296 297 297 299 298 300 301 300 300 301 302 300 299 299 302 303 303 302 301 301 301 301 300 300 300 300 300
292 293 291 291 289 297 300 299 298 297 297 296 295 295 296 295 296 297 296 297 299 299 300 301 301 300 301 302 301 300 301 302 303 302 302 302 302 301 301 300 301 299 300 300
297 300 295 294 297 298 298 298 299 299 298 297 297 297 297 296 296 296 297 298 299 300 300 301 301 300 301 301 302 302 302 303 302 302 302 302 301 301 301 302 301 300 299 300
298 300 296 296 298 299 299 298 299 298 299 298 298 298 297 297 296 297 299 300 300 301 301 302 300 300 300 301 303 303 303 303 302 300 300 301 300 301 302 301 301 301 300 299
299 297 295 294 300 299 298 298 300 298 298 298 298 297 298 298 297 300 299 300 300 300 301 300 301 301 302 303 303 304 305 303 301 300 300 301 302 302 302 302 303 298 297 296
Wind_Speed
5 8 3 2 4 4 9 11 13 7 3 12 14 14 12 11 13 8 8 10 10 10 10 11 11 9 9 9 10 9 8 7 7 5 4 2 3 3 2 1 5 5 5 7
8 6 3 7 9 11 11 14 4 6 10 9 12 12 9 7 7 8 8 10 7 6 7 8 6 5 6 5 6 7 6 6 5 3 2 3 3 2 4 3 5 6 6 6
8 4 2 9 4 8 3 6 6 8 10 10 14 7 4 5 8 8 9 8 7 5 4 5 4 4 4 6 6 5 6 5 5 5 3 3 2 2 2 3 3 3 5 5
6 6 4 3 4 3 6 7 14 22 6 6 2 4 5 5 2 4 5 5 3 3 2 1 2 3 4 4 4 5 5 7 5 5 5 5 3 3 3 3 3 5 5 5
2 2 6 8 3 1 3 14 14 7 3 6 2 4 5 8 5 3 2 3 1 1 2 4 5 5 4 5 5 5 6 7 7 7 6 4 4 2 3 3 6 5 5 5
2 3 4 1 3 4 4 6 4 4 3 3 2 4 5 6 5 8 5 4 4 1 3 5 6 6 7 7 6 6 7 6 6 5 6 6 5 6 5 5 4 3 3 4
6 5 6 6 5 4 8 7 3 4 6 3 4 3 0 4 6 8 9 6 4 2 3 5 6 7 7 6 5 4 5 6 6 7 7 7 6 6 7 7 5 7 5 3
3 6 6 8 3 2 3 4 5 3 2 2 5 2 4 4 2 5 4 5 3 3 4 5 5 6 4 3 4 5 6 6 7 6 7 6 5 3 3 4 5 5 4 5
3 2 0 6 5 4 6 5 3 5 1 4 1 2 4 3 2 2 3 4 4 5 4 2 2 1 3 4 5 6 6 6 6 6 6 5 4 5 5 7 5 4 5 5
2 3 3 4 7 8 6 1 5 5 3 3 3 4 4 6 6 3 3 5 4 5 2 1 3 3 3 4 4 5 5 5 6 6 5 5 5 5 5 5 6 6 5 6
3 3 5 4 6 2 7 5 5 4 3 2 0 5 6 5 4 7 4 3 3 1 2 3 3 3 4 4 5 6 6 6 6 5 6 6 5 5 5 4 5 5 4 5
3 4 2 3 3 4 4 2 3 5 4 2 3 4 4 4 4 4 4 3 4 5 4 3 3 4 4 6 6 6 6 7 6 5 5 5 5 6 6 6 7 6 5 6
1 5 4 8 6 6 6 5 3 4 3 1 2 4 2 3 5 5 5 6 6 4 4 2 3 4 5 6 6 6 6 6 5 5 5 5 6 6 5 6 7 7 5 5
7 4 5 5 5 2 4 5 3 4 4 1 0 4 4 4 4 4 6 7 5 4 3 3 5 5 6 6 5 6 6 5 4 4 4 6 7 8 7 7 5 7 7 5
6 4 3 5 4 4 3 4 8 6 2 3 2 2 3 3 3 7 6 6 5 3 5 6 6 6 6 5 6 6 6 5 4 6 7 7 7 6 7 7 6 5 5 4
4 2 2 4 3 5 5 3 3 4 2 3 2 2 2 3 6 6 5 6 6 5 6 7 6 6 7 7 8 7 6 5 5 6 6 6 6 8 7 6 6 6 6 5
4 5 3 1 1 6 3 2 1 1 1 1 2 2 5 3 5 4 4 5 4 5 5 6 6 5 7 6 6 7 7 6 6 6 7 7 8 8 8 6 6 6 6 5
5 4 2 2 3 1 3 4 1 3 3 2 1 2 2 5 4 5 3 3 4 5 5 5 5 5 6 6 7 6 6 6 6 7 7 8 8 8 8 8 7 6 5 5
5 5 4 4 2 4 4 3 2 4 5 1 3 4 4 6 4 3 2 3 3 2 2 3 3 3 4 6 6 5 6 6 8 8 8 8 7 8 8 8 7 6 5 5
6 7 6 2 2 2 4 3 5 3 4 2 4 6 5 3 2 3 1 3 4 3 3 4 4 4 5 6 5 5 5 7 8 7 7 7 7 7 7 7 7 5 4 4
4 4 4 2 1 6 4 3 0 4 6 1 1 4 6 3 3 2 5 3 2 2 3 3 4 4 5 5 5 5 6 8 6 5 5 6 7 6 6 5 5 6 6 6
4 4 1 2 2 3 3 2 2 5 1 2 3 2 4 5 4 5 4 4 2 3 3 4 4 4 4 5 4 5 7 6 5 4 4 4 5 5 5 6 6 7 6 6
2 5 4 6 6 3 3 1 1 3 4 2 5 3 5 6 3 3 2 2 2 2 3 3 3 4 4 4 5 6 6 7 7 5 5 4 4 4 5 5 6 5 5 5
2 2 4 3 2 1 1 2 2 2 4 4 4 5 4 4 4 2 1 1 1 2 3 3 4 4 5 6 5 3 5 6 5 5 6 5 6 5 5 5 4 4 5 5
4 3 4 2 3 1 2 1 4 4 6 7 5 4 5 6 4 3 1 2 2 2 3 3 3 3 4 5 5 4 5 6 5 5 5 5 4 5 5 4 3 3 2 0
3 6 4 5 6 5 4 7 6 7 6 7 5 3 3 4 5 3 3 3 2 2 2 3 3 3 4 4 5 5 5 5 5 5 4 4 5 6 4 4 4 5 5 2
Wind_Direction
352 65 95 190 89 114 79 89 112 135 71 77 96 99 98 95 98 88 80 79 69 45 43 38 33 32 38 38 48 45 44 22 31 4 353 14 356 337 321 335 341 340 339 346
25 39 264 119 83 91 104 111 92 57 91 87 101 90 80 80 83 95 81 70 65 53 36 35 34 35 42 45 40 32 20 30 29 19 332 324 329 335 323 321 334 324 320 335
96 339 97 96 64 86 103 134 178 136 91 86 125 98 107 96 86 80 71 72 58 48 40 27 15 15 25 36 27 17 350 10 4 351 319 302 312 321 285 317 324 307 309 314
70 1 48 76 92 105 60 118 129 139 118 185 169 133 175 158 127 106 88 80 45 18 35 296 332 7 5 4 357 338 342 355 348 346 356 357 317 320 313 307 295 308 320 320
169 95 39 52 9 76 95 144 150 155 101 115 153 104 143 164 209 201 126 112 242 251 299 342 346 343 326 341 336 341 342 344 352 357 358 345 331 278 295 315 321 321 320 329
37 339 57 283 68 50 112 120 89 92 134 62 191 147 191 184 192 175 171 208 200 255 327 331 315 334 326 336 337 340 341 337 342 341 339 339 322 321 332 328 319 319 307 307
14 356 329 45 31 11 51 50 337 354 1 249 311 62 335 176 178 186 188 186 167 211 302 307 325 320 312 324 337 336 349 329 339 343 333 327 327 336 339 330 327 325 322 309
113 352 17 325 54 284 58 117 142 270 236 236 353 146 226 165 100 91 101 122 173 230 253 276 310 295 301 20 5 345 359 346 340 332 314 312 322 322 309 315 309 300 295 308
112 99 105 52 25 56 325 31 191 114 68 92 268 253 276 158 131 83 151 141 214 229 233 271 302 149 3 347 357 339 333 326 320 309 306 314 334 333 316 306 292 289 304 312
114 89 17 12 37 14 84 261 10 9 314 288 247 283 274 216 214 213 220 189 233 247 267 128 178 22 344 338 313 326 332 300 292 308 315 311 318 324 317 314 321 331 336 332
38 85 301 62 36 323 351 12 40 110 103 192 267 269 360 13 148 189 214 172 222 213 120 93 20 355 319 327 352 337 328 309 321 340 324 332 335 339 338 337 342 345 330 337
348 121 48 92 317 45 68 48 107 113 284 77 147 293 342 9 53 113 84 109 93 91 81 61 28 12 356 351 339 327 333 339 338 334 346 349 344 348 353 351 339 333 352 353
103 22 29 349 348 3 43 355 56 100 79 64 65 298 15 30 65 49 108 93 91 89 81 82 13 360 352 344 336 334 339 336 341 350 1 349 2 354 345 348 351 350 19 17
86 76 135 190 230 197 24 354 6 87 72 295 23 333 354 8 20 65 85 83 78 88 73 350 360 347 340 334 325 334 340 344 349 3 4 2 358 354 354 350 354 6 8 5
80 87 70 34 58 70 80 46 39 60 11 89 301 40 354 349 20 102 112 116 102 55 20 6 351 341 334 332 343 344 348 345 3 16 11 8 354 338 348 353 354 353 1 3
20 130 113 35 51 78 74 40 54 36 51 82 57 283 140 113 96 77 86 88 57 25 9 2 0 357 4 0 352 346 344 358 21 19 11 355 344 355 354 354 353 355 358 2
68 118 84 230 252 1 3 4 53 66 60 1 276 264 153 99 86 86 78 72 43 16 11 2 358 4 3 348 347 0 359 18 18 14 2 358 359 345 346 344 355 6 5 0
116 90 78 139 24 236 245 26 281 190 236 162 152 108 120 133 107 89 62 72 23 22 12 7 1 352 349 355 1 352 7 12 7 14 6 4 354 352 356 2 4 356 344 354
77 113 78 106 143 293 315 307 185 197 286 251 130 139 139 131 103 49 62 81 80 65 29 7 353 329 345 359 352 8 11 8 16 10 357 354 347 358 4 7 360 359 3 1
64 70 100 71 52 231 242 310 337 119 301 336 148 182 149 147 42 264 67 92 63 51 41 12 359 356 8 3 3 6 10 22 13 354 354 353 356 12 9 1 357 347 356 0
30 16 87 95 158 286 252 309 143 60 250 42 147 147 143 163 196 171 119 73 54 48 22 8 18 10 356 352 4 17 30 14 345 353 1 4 9 2 357 359 5 2 1 5
128 118 164 84 59 324 16 8 24 209 310 94 77 91 126 121 125 115 107 115 46 42 23 28 22 8 359 10 23 23 23 342 336 344 3 7 8 2 0 7 6 12 9 15
60 168 182 160 216 251 314 273 121 148 139 131 113 104 123 118 121 121 134 126 60 34 29 19 25 23 2 8 20 21 347 342 336 342 355 1 3 4 4 18 25 30 19 29
16 140 103 70 245 280 69 62 105 109 110 117 112 116 115 132 138 119 191 225 67 27 17 27 41 29 3 357 22 360 341 336 340 9 17 17 30 20 23 27 25 34 32 17
194 107 134 285 268 86 185 172 138 93 102 103 101 128 151 135 151 153 175 52 42 56 40 35 34 22 351 357 356 6 352 349 16 27 24 26 34 27 28 26 17 34 99 44
185 169 152 221 207 156 208 160 139 128 133 140 130 118 115 142 148 139 83 46 45 44 42 41 29 10 335 12 346 1 8 20 38 30 12 24 48 32 28 13 338 263 250 287